TimeCST,TemperatureF,Dew PointF,Humidity,Sea Level PressureIn,VisibilityMPH,Wind Direction,Wind SpeedMPH,Gust SpeedMPH,PrecipitationIn,Events,Conditions,WindDirDegrees,DateUTC
12:15 AM,28.4,26.6,93,29.49,1.2,West,25.3,34.5,N/A,Snow,Light Snow,280,2013-02-11 06:15:00
12:35 AM,28.4,26.6,93,29.50,1.2,West,28.8,38.0,N/A,,Overcast,280,2013-02-11 06:35:00
12:55 AM,28.4,26.6,93,29.51,2.0,West,28.8,38.0,N/A,Snow,Light Snow,280,2013-02-11 06:55:00
1:15 AM,28.4,26.6,93,29.52,2.0,West,31.1,-,N/A,,Overcast,280,2013-02-11 07:15:00
1:35 AM,28.4,24.8,86,29.53,2.5,West,27.6,38.0,N/A,,Overcast,280,2013-02-11 07:35:00
1:55 AM,28.4,24.8,86,29.55,3.0,West,29.9,38.0,N/A,,Overcast,280,2013-02-11 07:55:00
2:15 AM,28.4,26.6,93,29.57,3.0,WNW,27.6,39.1,N/A,,Overcast,290,2013-02-11 08:15:00
2:35 AM,28.4,24.8,86,29.58,7.0,WNW,29.9,38.0,N/A,Rain,Freezing Rain,290,2013-02-11 08:35:00
2:55 AM,28.4,26.6,93,29.59,1.0,West,31.1,-,N/A,Snow,Light Snow,280,2013-02-11 08:55:00
3:15 AM,28.4,26.6,93,29.61,1.8,WNW,29.9,38.0,N/A,,Overcast,290,2013-02-11 09:15:00
3:35 AM,28.4,24.8,86,29.62,1.2,WNW,32.2,39.1,N/A,,Overcast,300,2013-02-11 09:35:00
3:55 AM,26.6,24.8,93,29.63,1.5,WNW,31.1,39.1,N/A,,Overcast,300,2013-02-11 09:55:00
4:15 AM,28.4,23.0,80,29.65,2.5,WNW,32.2,38.0,N/A,Rain,Freezing Rain,290,2013-02-11 10:15:00
4:35 AM,26.6,23.0,86,29.66,1.5,WNW,36.8,47.2,N/A,,Overcast,300,2013-02-11 10:35:00
4:55 AM,28.4,23.0,80,29.68,2.5,WNW,24.2,36.8,N/A,Snow,Light Snow,300,2013-02-11 10:55:00
5:15 AM,28.4,23.0,80,29.70,4.0,WNW,31.1,36.8,N/A,,Freezing Rain,290,2013-02-11 11:15:00
5:35 AM,26.6,23.0,86,29.72,4.0,WNW,23.0,33.4,N/A,,Freezing Rain,300,2013-02-11 11:35:00
6:15 AM,26.6,21.2,80,29.74,1.2,WNW,29.9,44.9,N/A,,Overcast,300,2013-02-11 12:15:00
6:35 AM,26.6,21.2,80,29.76,3.0,WNW,27.6,36.8,N/A,,Freezing Rain,300,2013-02-11 12:35:00
6:55 AM,26.6,21.2,80,29.78,5.0,WNW,29.9,-,N/A,,Freezing Rain,290,2013-02-11 12:55:00
7:15 AM,26.6,21.2,80,29.79,5.0,WNW,24.2,35.7,N/A,,Freezing Rain,300,2013-02-11 13:15:00
7:35 AM,26.6,19.4,74,29.81,9.0,WNW,31.1,40.3,N/A,,Freezing Rain,290,2013-02-11 13:35:00
7:55 AM,26.6,21.2,80,29.83,9.0,WNW,27.6,-,N/A,Rain,Freezing Rain,290,2013-02-11 13:55:00
8:15 AM,26.6,19.4,74,29.84,5.0,WNW,28.8,38.0,N/A,,Freezing Rain,300,2013-02-11 14:15:00
8:35 AM,24.8,19.4,80,29.85,2.0,WNW,29.9,42.6,N/A,,Freezing Rain,300,2013-02-11 14:35:00
8:55 AM,24.8,19.4,80,29.87,9.0,WNW,32.2,40.3,N/A,Rain,Freezing Rain,290,2013-02-11 14:55:00
9:15 AM,24.8,19.4,80,29.87,8.0,WNW,29.9,40.3,N/A,,Overcast,300,2013-02-11 15:15:00
9:35 AM,24.8,19.4,80,29.89,10.0,WNW,32.2,41.4,N/A,,Overcast,300,2013-02-11 15:35:00
9:55 AM,24.8,19.4,80,29.90,10.0,WNW,28.8,36.8,N/A,,Overcast,300,2013-02-11 15:55:00
10:15 AM,26.6,19.4,74,29.91,10.0,WNW,33.4,39.1,N/A,,Freezing Rain,300,2013-02-11 16:15:00
10:35 AM,26.6,19.4,74,29.92,10.0,WNW,31.1,39.1,N/A,,Overcast,300,2013-02-11 16:35:00
10:55 AM,26.6,19.4,74,29.93,10.0,WNW,32.2,41.4,N/A,,Overcast,300,2013-02-11 16:55:00
11:15 AM,26.6,19.4,74,29.94,10.0,WNW,27.6,35.7,N/A,,Overcast,300,2013-02-11 17:15:00
11:35 AM,26.6,19.4,74,29.95,10.0,WNW,28.8,35.7,N/A,,Overcast,300,2013-02-11 17:35:00
11:55 AM,26.6,19.4,74,29.96,10.0,WNW,28.8,38.0,N/A,,Overcast,290,2013-02-11 17:55:00
12:15 PM,26.6,19.4,74,29.96,10.0,WNW,26.5,38.0,N/A,,Overcast,300,2013-02-11 18:15:00
12:35 PM,26.6,19.4,74,29.96,10.0,WNW,29.9,38.0,N/A,,Overcast,300,2013-02-11 18:35:00
12:55 PM,26.6,19.4,74,29.97,10.0,WNW,25.3,33.4,N/A,Rain,Freezing Rain,300,2013-02-11 18:55:00
1:15 PM,26.6,19.4,74,29.97,10.0,WNW,25.3,34.5,N/A,,Overcast,300,2013-02-11 19:15:00
1:35 PM,26.6,19.4,74,29.97,10.0,WNW,28.8,34.5,N/A,Rain,Freezing Rain,300,2013-02-11 19:35:00
1:55 PM,26.6,19.4,74,29.98,10.0,WNW,26.5,36.8,N/A,,Overcast,300,2013-02-11 19:55:00
2:15 PM,26.6,19.4,74,29.98,-9999.0,WNW,24.2,34.5,N/A,,Overcast,300,2013-02-11 20:15:00
2:35 PM,26.6,19.4,74,29.98,10.0,WNW,28.8,36.8,N/A,,Overcast,300,2013-02-11 20:35:00
2:55 PM,26.6,19.4,74,30.00,10.0,WNW,25.3,32.2,N/A,,Overcast,300,2013-02-11 20:55:00
3:15 PM,26.6,19.4,74,30.00,10.0,WNW,25.3,32.2,N/A,,Overcast,300,2013-02-11 21:15:00
3:35 PM,26.6,19.4,74,30.01,10.0,WNW,24.2,29.9,N/A,,Overcast,300,2013-02-11 21:35:00
3:55 PM,26.6,19.4,74,30.01,10.0,NW,23.0,29.9,N/A,,Overcast,310,2013-02-11 21:55:00
4:55 PM,26.6,19.4,74,30.03,10.0,WNW,19.6,-,N/A,,Overcast,300,2013-02-11 22:55:00
5:15 PM,24.8,17.6,74,30.03,10.0,WNW,23.0,29.9,N/A,,Overcast,300,2013-02-11 23:15:00
5:35 PM,24.8,17.6,74,30.04,10.0,NW,18.4,25.3,N/A,,Overcast,310,2013-02-11 23:35:00
5:55 PM,24.8,17.6,74,30.05,10.0,WNW,16.1,21.9,N/A,,Overcast,300,2013-02-11 23:55:00
6:15 PM,24.8,17.6,74,30.06,10.0,WNW,20.7,-,N/A,,Overcast,300,2013-02-12 00:15:00
6:35 PM,24.8,17.6,74,30.06,10.0,NW,18.4,24.2,N/A,,Overcast,310,2013-02-12 00:35:00
6:55 PM,24.8,17.6,74,30.06,10.0,WNW,17.3,-,N/A,,Freezing Rain,290,2013-02-12 00:55:00
7:15 PM,24.8,17.6,74,30.06,10.0,WNW,19.6,-,N/A,,Overcast,300,2013-02-12 01:15:00
7:35 PM,24.8,17.6,74,30.07,10.0,WNW,16.1,-,N/A,,Overcast,300,2013-02-12 01:35:00
7:55 PM,24.8,19.4,80,30.07,10.0,NW,12.7,21.9,N/A,,Overcast,310,2013-02-12 01:55:00
8:15 PM,24.8,17.6,74,30.07,10.0,NW,12.7,-,N/A,,Overcast,310,2013-02-12 02:15:00
8:35 PM,24.8,19.4,80,30.07,10.0,WNW,15.0,-,N/A,,Overcast,300,2013-02-12 02:35:00
8:55 PM,24.8,17.6,74,30.07,10.0,WNW,15.0,21.9,N/A,,Overcast,300,2013-02-12 02:55:00
9:15 PM,24.8,19.4,80,30.07,10.0,WNW,13.8,21.9,N/A,,Overcast,290,2013-02-12 03:15:00
9:35 PM,24.8,17.6,74,30.08,10.0,West,17.3,23.0,N/A,,Overcast,280,2013-02-12 03:35:00
9:55 PM,23.0,17.6,80,30.08,10.0,WNW,16.1,-,N/A,,Overcast,300,2013-02-12 03:55:00
10:15 PM,23.0,17.6,80,30.08,10.0,WNW,16.1,-,N/A,,Overcast,300,2013-02-12 04:15:00
10:35 PM,21.2,15.8,80,30.08,10.0,WNW,12.7,19.6,N/A,,Scattered Clouds,300,2013-02-12 04:35:00
10:55 PM,21.2,15.8,80,30.08,10.0,WNW,11.5,17.3,N/A,,Clear,300,2013-02-12 04:55:00
11:15 PM,21.2,15.8,80,30.09,10.0,WNW,11.5,-,N/A,,Mostly Cloudy,290,2013-02-12 05:15:00
11:35 PM,21.2,15.8,80,30.09,10.0,WNW,11.5,-,N/A,,Overcast,290,2013-02-12 05:35:00
11:55 PM,21.2,15.8,80,30.10,10.0,WNW,12.7,-,N/A,,Overcast,300,2013-02-12 05:55:00